Location: Ripley
(48.3812°N, 115.4473°W)
Time: 10:37:14
(UTC+00:00)

O/OREOS (USA 219) - Pass Details

Date: 02 July 2022
Orbit: 621 x 646 km, 72.0° (Epoch: 22 May)

Event Time Altitude Azimuth Distance (km) Brightness Sun altitude
Rises 09:13:55 0° 318° (NW) 2,965 ? -15.9°
Reaches altitude 10° 09:17:05 10° 295° (WNW) 2,051 ? -15.7°
Maximum altitude 09:19:37 15° 261° (W) 1,752 ? -15.6°
Enters shadow 09:20:18 14° 251° (WSW) 1,774 ? -15.5°
